Time,TemperatureF,DewpointF,PressureIn,WindDirection,WindDirectionDegrees,WindSpeedMPH,WindSpeedGustMPH,Humidity,HourlyPrecipIn,Conditions,Clouds,dailyrainin,SolarRadiationWatts/m^2,SoftwareType,DateUTC
2013-05-11 00:05:00,54.5,54.5,30.16,SW,229,0.0,2.0,100,0.00,,,0.00,0002,Weather View 32 v70,2013-05-11 07:05:00,
2013-05-11 00:10:00,54.4,54.4,30.16,WSW,252,0.0,2.0,100,0.00,,,0.00,0001,Weather View 32 v70,2013-05-11 07:10:00,
2013-05-11 00:15:00,54.4,54.4,30.16,ESE,117,0.0,1.0,100,0.00,,,0.00,0001,Weather View 32 v70,2013-05-11 07:15:00,
2013-05-11 00:20:00,54.0,54.0,30.17,South,184,0.0,1.0,100,0.00,,,0.00,0001,Weather View 32 v70,2013-05-11 07:20:00,
2013-05-11 00:30:00,53.7,53.7,30.16,South,184,0.0,0.0,100,0.00,,,0.00,0001,Weather View 32 v70,2013-05-11 07:30:00,
2013-05-11 00:35:00,53.7,53.7,30.16,WSW,252,0.0,0.0,100,0.00,,,0.00,0002,Weather View 32 v70,2013-05-11 07:35:00,
2013-05-11 00:40:00,53.8,53.8,30.16,SSW,207,0.0,0.0,100,0.00,,,0.00,0001,Weather View 32 v70,2013-05-11 07:40:00,
2013-05-11 00:45:00,53.6,53.6,30.16,SSW,207,0.0,0.0,100,0.00,,,0.00,0001,Weather View 32 v70,2013-05-11 07:45:00,
2013-05-11 00:55:00,53.6,53.6,30.16,SSW,207,0.0,0.0,100,0.00,,,0.00,0002,Weather View 32 v70,2013-05-11 07:55:00,
2013-05-11 01:00:00,53.6,53.6,30.16,SW,229,0.0,0.0,100,0.00,,,0.00,0002,Weather View 32 v70,2013-05-11 08:00:00,
2013-05-11 01:05:00,53.5,53.5,30.16,South,184,0.0,0.0,100,0.00,,,0.00,0002,Weather View 32 v70,2013-05-11 08:05:00,
2013-05-11 01:10:00,53.5,53.5,30.16,SE,139,0.0,0.0,100,0.00,,,0.00,0002,Weather View 32 v70,2013-05-11 08:10:00,
2013-05-11 01:15:00,53.3,53.3,30.16,West,274,0.0,0.0,100,0.00,,,0.00,0001,Weather View 32 v70,2013-05-11 08:15:00,
2013-05-11 01:25:00,53.3,53.3,30.16,SW,229,0.0,0.0,100,0.00,,,0.00,0002,Weather View 32 v70,2013-05-11 08:25:00,
2013-05-11 01:30:00,53.1,53.1,30.16,South,184,0.0,0.0,100,0.00,,,0.00,0002,Weather View 32 v70,2013-05-11 08:30:00,
2013-05-11 01:35:00,52.9,52.9,30.16,South,184,0.0,0.0,100,0.00,,,0.00,0002,Weather View 32 v70,2013-05-11 08:35:00,
2013-05-11 01:40:00,52.7,52.7,30.16,SSW,207,0.0,0.0,100,0.00,,,0.00,0001,Weather View 32 v70,2013-05-11 08:40:00,
2013-05-11 01:50:00,52.6,52.6,30.16,SSW,207,0.0,0.0,100,0.00,,,0.00,0001,Weather View 32 v70,2013-05-11 08:50:00,
2013-05-11 01:55:00,52.7,52.7,30.15,SW,229,0.0,0.0,100,0.00,,,0.00,0002,Weather View 32 v70,2013-05-11 08:55:00,
2013-05-11 02:00:00,52.8,52.8,30.15,SSW,207,0.0,0.0,100,0.00,,,0.00,0001,Weather View 32 v70,2013-05-11 09:00:00,
2013-05-11 02:05:00,52.8,52.8,30.15,South,184,0.0,0.0,100,0.00,,,0.00,0001,Weather View 32 v70,2013-05-11 09:05:00,
2013-05-11 02:10:00,52.6,52.6,30.16,South,184,0.0,0.0,100,0.00,,,0.00,0001,Weather View 32 v70,2013-05-11 09:10:00,
2013-05-11 02:20:00,52.7,52.7,30.15,WSW,252,0.0,0.0,100,0.00,,,0.00,0001,Weather View 32 v70,2013-05-11 09:20:00,
2013-05-11 02:25:00,52.6,52.6,30.15,SSW,207,0.0,0.0,100,0.00,,,0.00,0002,Weather View 32 v70,2013-05-11 09:25:00,
2013-05-11 02:30:00,52.5,52.5,30.15,SE,139,0.0,0.0,100,0.00,,,0.00,0002,Weather View 32 v70,2013-05-11 09:30:00,
2013-05-11 02:35:00,52.3,52.3,30.15,SE,139,0.0,0.0,100,0.00,,,0.00,0001,Weather View 32 v70,2013-05-11 09:35:00,
2013-05-11 02:42:00,52.1,52.1,30.14,South,184,0.0,0.0,100,0.00,,,0.00,0001,Weather View 32 v70,2013-05-11 09:42:00,
2013-05-11 02:50:00,52.0,52.0,30.14,SSW,207,0.0,0.0,100,0.00,,,0.00,0001,Weather View 32 v70,2013-05-11 09:50:00,
2013-05-11 02:55:00,51.9,51.9,30.14,SSW,207,0.0,0.0,100,0.00,,,0.00,0001,Weather View 32 v70,2013-05-11 09:55:00,
2013-05-11 03:00:00,52.0,52.0,30.14,SW,229,0.0,0.0,100,0.00,,,0.00,0001,Weather View 32 v70,2013-05-11 10:00:00,
2013-05-11 03:10:00,51.7,51.7,30.14,South,184,0.0,0.0,100,0.00,,,0.00,0002,Weather View 32 v70,2013-05-11 10:10:00,
2013-05-11 03:15:00,51.6,51.6,30.14,South,184,0.0,0.0,100,0.00,,,0.00,0001,Weather View 32 v70,2013-05-11 10:15:00,
2013-05-11 03:20:00,51.6,51.6,30.14,SSW,207,0.0,0.0,100,0.00,,,0.00,0002,Weather View 32 v70,2013-05-11 10:20:00,
2013-05-11 03:25:00,51.6,51.6,30.14,WSW,252,0.0,0.0,100,0.00,,,0.00,0002,Weather View 32 v70,2013-05-11 10:25:00,
2013-05-11 03:30:00,51.6,51.6,30.14,SW,229,0.0,0.0,100,0.00,,,0.00,0002,Weather View 32 v70,2013-05-11 10:30:00,
2013-05-11 03:40:00,51.5,51.5,30.13,SSW,207,0.0,0.0,100,0.00,,,0.00,0001,Weather View 32 v70,2013-05-11 10:40:00,
2013-05-11 03:50:00,51.2,51.2,30.13,SSW,207,0.0,0.0,100,0.00,,,0.00,0002,Weather View 32 v70,2013-05-11 10:50:00,
2013-05-11 03:55:00,51.3,51.3,30.13,WSW,252,0.0,0.0,100,0.00,,,0.00,0001,Weather View 32 v70,2013-05-11 10:55:00,
2013-05-11 04:05:00,51.3,51.3,30.13,SSW,207,0.0,0.0,100,0.00,,,0.00,0002,Weather View 32 v70,2013-05-11 11:05:00,
2013-05-11 04:10:00,51.2,51.2,30.13,SSE,162,0.0,0.0,100,0.00,,,0.00,0001,Weather View 32 v70,2013-05-11 11:10:00,
2013-05-11 04:15:00,51.2,51.2,30.13,SW,229,0.0,0.0,100,0.00,,,0.00,0001,Weather View 32 v70,2013-05-11 11:15:00,
2013-05-11 04:20:00,51.1,51.1,30.13,South,184,0.0,0.0,100,0.00,,,0.00,0001,Weather View 32 v70,2013-05-11 11:20:00,
2013-05-11 04:30:00,51.2,51.2,30.12,SSW,207,0.0,0.0,100,0.00,,,0.00,0001,Weather View 32 v70,2013-05-11 11:30:00,
2013-05-11 04:35:00,51.1,51.1,30.12,SSW,207,0.0,0.0,100,0.00,,,0.00,0001,Weather View 32 v70,2013-05-11 11:35:00,
2013-05-11 04:40:00,51.1,51.1,30.12,South,184,0.0,0.0,100,0.00,,,0.00,0001,Weather View 32 v70,2013-05-11 11:40:00,
2013-05-11 04:45:00,50.9,50.9,30.12,SSW,207,0.0,0.0,100,0.00,,,0.00,0001,Weather View 32 v70,2013-05-11 11:45:00,
2013-05-11 04:50:00,51.0,51.0,30.12,SSW,207,0.0,0.0,100,0.00,,,0.00,0001,Weather View 32 v70,2013-05-11 11:50:00,
2013-05-11 05:00:00,51.0,51.0,30.12,WSW,252,0.0,0.0,100,0.00,,,0.00,0002,Weather View 32 v70,2013-05-11 12:00:00,
2013-05-11 05:05:00,51.0,51.0,30.12,SSW,207,0.0,0.0,100,0.00,,,0.00,0002,Weather View 32 v70,2013-05-11 12:05:00,
2013-05-11 05:10:00,51.0,51.0,30.11,South,184,0.0,0.0,100,0.00,,,0.00,0001,Weather View 32 v70,2013-05-11 12:10:00,
2013-05-11 05:15:00,50.9,50.9,30.11,South,184,0.0,0.0,100,0.00,,,0.00,0001,Weather View 32 v70,2013-05-11 12:15:00,
2013-05-11 05:20:00,50.7,50.7,30.11,South,184,0.0,0.0,100,0.00,,,0.00,0001,Weather View 32 v70,2013-05-11 12:20:00,
2013-05-11 05:30:00,50.5,50.5,30.11,South,184,0.0,0.0,100,0.00,,,0.00,0002,Weather View 32 v70,2013-05-11 12:30:00,
2013-05-11 05:35:00,50.4,50.4,30.11,South,184,0.0,0.0,100,0.00,,,0.00,0002,Weather View 32 v70,2013-05-11 12:35:00,
2013-05-11 05:40:00,50.5,50.5,30.11,SSW,207,0.0,0.0,100,0.00,,,0.00,0002,Weather View 32 v70,2013-05-11 12:40:00,
2013-05-11 05:45:00,50.6,50.6,30.11,SSE,162,0.0,0.0,100,0.00,,,0.00,0002,Weather View 32 v70,2013-05-11 12:45:00,
2013-05-11 05:55:00,50.5,50.5,30.11,South,184,0.0,0.0,100,0.00,,,0.00,0003,Weather View 32 v70,2013-05-11 12:55:00,
2013-05-11 06:00:00,50.5,50.5,30.11,South,184,0.0,0.0,100,0.00,,,0.00,0005,Weather View 32 v70,2013-05-11 13:00:00,
2013-05-11 06:05:00,50.5,50.5,30.11,South,184,0.0,0.0,100,0.00,,,0.00,0007,Weather View 32 v70,2013-05-11 13:05:00,
2013-05-11 06:10:00,50.5,50.5,30.11,South,184,0.0,0.0,100,0.00,,,0.00,0011,Weather View 32 v70,2013-05-11 13:10:00,
2013-05-11 06:20:00,50.8,50.8,30.12,SE,139,0.0,0.0,100,0.00,,,0.00,0040,Weather View 32 v70,2013-05-11 13:20:00,
2013-05-11 06:25:00,50.9,50.9,30.12,ESE,117,0.0,0.0,100,0.00,,,0.00,0056,Weather View 32 v70,2013-05-11 13:25:00,
2013-05-11 06:30:00,51.0,51.0,30.12,SSE,162,0.0,0.0,100,0.00,,,0.00,0070,Weather View 32 v70,2013-05-11 13:30:00,
2013-05-11 06:35:00,51.3,51.3,30.12,SE,139,0.0,0.0,100,0.00,,,0.00,0084,Weather View 32 v70,2013-05-11 13:35:00,
2013-05-11 06:40:00,51.6,51.6,30.12,SE,139,0.0,2.0,100,0.00,,,0.00,0094,Weather View 32 v70,2013-05-11 13:40:00,
2013-05-11 06:50:00,52.1,52.1,30.13,ESE,117,0.0,3.0,100,0.00,,,0.00,0121,Weather View 32 v70,2013-05-11 13:50:00,
2013-05-11 06:55:00,52.4,52.4,30.13,ESE,117,0.0,4.0,100,0.00,,,0.00,0135,Weather View 32 v70,2013-05-11 13:55:00,
2013-05-11 07:00:00,52.7,52.7,30.13,ESE,117,1.0,4.0,100,0.00,,,0.00,0150,Weather View 32 v70,2013-05-11 14:00:00,
2013-05-11 07:05:00,53.1,53.1,30.13,SE,139,0.0,4.0,100,0.00,,,0.00,0166,Weather View 32 v70,2013-05-11 14:05:00,
2013-05-11 07:10:00,53.9,53.9,30.13,ESE,117,0.0,4.0,100,0.00,,,0.00,0181,Weather View 32 v70,2013-05-11 14:10:00,
2013-05-11 07:20:00,55.2,55.2,30.13,SSE,162,1.0,4.0,100,0.00,,,0.00,0208,Weather View 32 v70,2013-05-11 14:20:00,
2013-05-11 07:25:00,55.7,55.7,30.14,ESE,117,0.0,4.0,100,0.00,,,0.00,0221,Weather View 32 v70,2013-05-11 14:25:00,
2013-05-11 07:30:00,55.3,55.3,30.13,ESE,117,3.0,4.0,100,0.00,,,0.00,0235,Weather View 32 v70,2013-05-11 14:30:00,
2013-05-11 07:35:00,55.3,55.3,30.14,SE,139,1.0,4.0,100,0.00,,,0.00,0248,Weather View 32 v70,2013-05-11 14:35:00,
2013-05-11 07:44:00,55.3,55.3,30.13,SE,139,3.0,4.0,100,0.00,,,0.00,0261,Weather View 32 v70,2013-05-11 14:44:00,
2013-05-11 07:50:00,56.0,56.0,30.13,SE,139,4.0,5.0,100,0.00,,,0.00,0288,Weather View 32 v70,2013-05-11 14:50:00,
2013-05-11 07:55:00,56.3,56.3,30.13,ESE,117,4.0,5.0,100,0.00,,,0.00,0300,Weather View 32 v70,2013-05-11 14:55:00,
2013-05-11 08:00:00,56.8,56.8,30.13,SE,139,3.0,5.0,100,0.00,,,0.00,0313,Weather View 32 v70,2013-05-11 15:00:00,
2013-05-11 08:10:00,58.1,58.1,30.13,ESE,117,4.0,5.0,100,0.00,,,0.00,0339,Weather View 32 v70,2013-05-11 15:10:00,
2013-05-11 08:15:00,58.5,58.5,30.13,East,94,3.0,5.0,100,0.00,,,0.00,0354,Weather View 32 v70,2013-05-11 15:15:00,
2013-05-11 08:20:00,59.1,59.1,30.13,ENE,72,2.0,5.0,100,0.00,,,0.00,0366,Weather View 32 v70,2013-05-11 15:20:00,
2013-05-11 08:25:00,59.4,59.4,30.13,ENE,72,2.0,5.0,100,0.00,,,0.00,0377,Weather View 32 v70,2013-05-11 15:25:00,
2013-05-11 08:30:00,59.9,59.9,30.13,ESE,117,1.0,5.0,100,0.00,,,0.00,0389,Weather View 32 v70,2013-05-11 15:30:00,
2013-05-11 08:40:00,61.4,61.4,30.13,East,94,2.0,5.0,100,0.00,,,0.00,0414,Weather View 32 v70,2013-05-11 15:40:00,
2013-05-11 08:45:00,61.6,61.6,30.13,South,184,1.0,5.0,100,0.00,,,0.00,0427,Weather View 32 v70,2013-05-11 15:45:00,
2013-05-11 08:55:00,62.6,62.6,30.13,SE,139,1.0,4.0,100,0.00,,,0.00,0452,Weather View 32 v70,2013-05-11 15:55:00,
2013-05-11 09:05:00,63.1,63.1,30.13,ENE,72,3.0,4.0,100,0.00,,,0.00,0477,Weather View 32 v70,2013-05-11 16:05:00,
2013-05-11 09:10:00,63.7,63.7,30.13,East,94,3.0,4.0,100,0.00,,,0.00,0489,Weather View 32 v70,2013-05-11 16:10:00,
2013-05-11 09:15:00,63.6,63.6,30.12,West,274,3.0,4.0,100,0.00,,,0.00,0502,Weather View 32 v70,2013-05-11 16:15:00,
2013-05-11 09:20:00,63.3,63.3,30.12,NW,319,2.0,6.0,100,0.00,,,0.00,0515,Weather View 32 v70,2013-05-11 16:20:00,
2013-05-11 09:25:00,63.9,63.9,30.12,NNW,342,2.0,6.0,100,0.00,,,0.00,0528,Weather View 32 v70,2013-05-11 16:25:00,
2013-05-11 09:35:00,66.0,66.0,30.12,ENE,72,1.0,6.0,100,0.00,,,0.00,0554,Weather View 32 v70,2013-05-11 16:35:00,
2013-05-11 09:40:00,66.3,66.3,30.12,WSW,252,3.0,6.0,100,0.00,,,0.00,0566,Weather View 32 v70,2013-05-11 16:40:00,
2013-05-11 09:45:00,66.3,66.3,30.12,NW,319,2.0,6.0,100,0.00,,,0.00,0578,Weather View 32 v70,2013-05-11 16:45:00,
2013-05-11 09:55:00,68.0,68.0,30.12,ESE,117,1.0,6.0,100,0.00,,,0.00,0604,Weather View 32 v70,2013-05-11 16:55:00,
2013-05-11 10:05:00,69.8,69.8,30.12,ESE,117,1.0,6.0,100,0.00,,,0.00,0628,Weather View 32 v70,2013-05-11 17:05:00,
2013-05-11 10:10:00,70.1,70.1,30.11,NNE,27,1.0,6.0,100,0.00,,,0.00,0639,Weather View 32 v70,2013-05-11 17:10:00,
2013-05-11 10:15:00,71.3,71.3,30.11,ESE,117,1.0,6.0,100,0.00,,,0.00,0649,Weather View 32 v70,2013-05-11 17:15:00,
2013-05-11 10:20:00,70.7,70.7,30.11,NNE,27,2.0,5.0,100,0.00,,,0.00,0661,Weather View 32 v70,2013-05-11 17:20:00,
2013-05-11 10:30:00,73.5,73.5,30.11,ESE,117,2.0,5.0,100,0.00,,,0.00,0682,Weather View 32 v70,2013-05-11 17:30:00,
2013-05-11 10:35:00,74.7,74.7,30.11,SE,139,0.0,5.0,100,0.00,,,0.00,0690,Weather View 32 v70,2013-05-11 17:35:00,
2013-05-11 10:40:00,74.8,74.8,30.11,ENE,72,4.0,5.0,100,0.00,,,0.00,0702,Weather View 32 v70,2013-05-11 17:40:00,
2013-05-11 10:45:00,74.4,74.4,30.11,East,94,3.0,6.0,100,0.00,,,0.00,0710,Weather View 32 v70,2013-05-11 17:45:00,
2013-05-11 10:50:00,75.0,75.0,30.11,SE,139,2.0,6.0,100,0.00,,,0.00,0719,Weather View 32 v70,2013-05-11 17:50:00,
2013-05-11 10:55:00,74.9,74.9,30.11,NW,319,0.0,6.0,100,0.00,,,0.00,0726,Weather View 32 v70,2013-05-11 17:55:00,
2013-05-11 11:05:00,76.7,76.7,30.11,NNE,27,4.0,6.0,100,0.00,,,0.00,0743,Weather View 32 v70,2013-05-11 18:05:00,
2013-05-11 11:10:00,76.5,76.5,30.10,ENE,72,2.0,6.0,100,0.00,,,0.00,0749,Weather View 32 v70,2013-05-11 18:10:00,
2013-05-11 11:15:00,76.9,76.9,30.10,NE,49,3.0,6.0,100,0.00,,,0.00,0756,Weather View 32 v70,2013-05-11 18:15:00,
2013-05-11 11:20:00,77.6,77.6,30.10,NNE,27,2.0,6.0,100,0.00,,,0.00,0761,Weather View 32 v70,2013-05-11 18:20:00,
2013-05-11 11:25:00,78.7,78.7,30.10,South,184,3.0,6.0,100,0.00,,,0.00,0767,Weather View 32 v70,2013-05-11 18:25:00,
2013-05-11 11:35:00,79.3,79.3,30.10,NNE,27,1.0,6.0,100,0.00,,,0.00,0778,Weather View 32 v70,2013-05-11 18:35:00,
2013-05-11 11:40:00,80.4,80.4,30.10,South,184,0.0,6.0,100,0.00,,,0.00,0782,Weather View 32 v70,2013-05-11 18:40:00,
2013-05-11 11:45:00,81.1,81.1,30.10,North,4,3.0,6.0,100,0.00,,,0.00,0785,Weather View 32 v70,2013-05-11 18:45:00,
2013-05-11 11:50:00,81.6,81.6,30.10,SSW,207,1.0,6.0,100,0.00,,,0.00,0792,Weather View 32 v70,2013-05-11 18:50:00,
2013-05-11 11:55:00,82.4,82.4,30.09,ESE,117,3.0,6.0,100,0.00,,,0.00,0797,Weather View 32 v70,2013-05-11 18:55:00,
2013-05-11 12:05:00,83.4,83.4,30.09,ESE,117,0.0,6.0,100,0.00,,,0.00,0805,Weather View 32 v70,2013-05-11 19:05:00,
2013-05-11 12:10:00,82.6,82.6,30.09,NE,49,1.0,6.0,100,0.00,,,0.00,0809,Weather View 32 v70,2013-05-11 19:10:00,
2013-05-11 12:15:00,83.9,83.9,30.09,ENE,72,1.0,6.0,100,0.00,,,0.00,0813,Weather View 32 v70,2013-05-11 19:15:00,
2013-05-11 12:20:00,84.9,84.9,30.09,ESE,117,4.0,6.0,100,0.00,,,0.00,0817,Weather View 32 v70,2013-05-11 19:20:00,
2013-05-11 12:30:00,84.5,84.5,30.09,East,94,4.0,6.0,100,0.00,,,0.00,0824,Weather View 32 v70,2013-05-11 19:30:00,
2013-05-11 12:35:00,84.7,84.7,30.09,SW,229,1.0,7.0,100,0.00,,,0.00,0828,Weather View 32 v70,2013-05-11 19:35:00,
2013-05-11 12:40:00,85.0,85.0,30.08,South,184,3.0,7.0,100,0.00,,,0.00,0831,Weather View 32 v70,2013-05-11 19:40:00,
2013-05-11 12:45:00,85.5,85.5,30.08,NE,49,3.0,7.0,100,0.00,,,0.00,0834,Weather View 32 v70,2013-05-11 19:45:00,
2013-05-11 12:50:00,86.0,86.0,30.08,SE,139,1.0,7.0,100,0.00,,,0.00,0835,Weather View 32 v70,2013-05-11 19:50:00,
2013-05-11 13:00:00,86.5,86.5,30.08,WNW,297,4.0,7.0,100,0.00,,,0.00,0838,Weather View 32 v70,2013-05-11 20:00:00,
2013-05-11 13:05:00,87.1,87.1,30.08,NE,49,6.0,7.0,100,0.00,,,0.00,0840,Weather View 32 v70,2013-05-11 20:05:00,
2013-05-11 13:10:00,87.7,87.7,30.07,NNE,27,3.0,7.0,100,0.00,,,0.00,0840,Weather View 32 v70,2013-05-11 20:10:00,
2013-05-11 13:15:00,88.0,88.0,30.07,North,4,5.0,12.0,100,0.00,,,0.00,0840,Weather View 32 v70,2013-05-11 20:15:00,
2013-05-11 13:20:00,87.0,87.0,30.07,NW,319,7.0,12.0,100,0.00,,,0.00,0832,Weather View 32 v70,2013-05-11 20:20:00,
2013-05-11 13:25:00,87.2,87.2,30.07,North,4,3.0,12.0,100,0.00,,,0.00,0833,Weather View 32 v70,2013-05-11 20:25:00,
2013-05-11 13:35:00,87.1,87.1,30.08,NW,319,6.0,13.0,100,0.00,,,0.00,0740,Weather View 32 v70,2013-05-11 20:35:00,
2013-05-11 13:40:00,86.6,86.6,30.07,NNW,342,8.0,13.0,100,0.00,,,0.00,0825,Weather View 32 v70,2013-05-11 20:40:00,
2013-05-11 13:45:00,86.0,86.0,30.07,WNW,297,9.0,13.0,100,0.00,,,0.00,0823,Weather View 32 v70,2013-05-11 20:45:00,
2013-05-11 13:50:00,87.0,87.0,30.07,NW,319,7.0,13.0,100,0.00,,,0.00,0816,Weather View 32 v70,2013-05-11 20:50:00,
2013-05-11 14:00:00,87.4,87.4,30.07,NW,319,6.0,13.0,100,0.00,,,0.00,0801,Weather View 32 v70,2013-05-11 21:00:00,
2013-05-11 14:05:00,87.6,87.6,30.07,NW,319,8.0,13.0,100,0.00,,,0.00,0790,Weather View 32 v70,2013-05-11 21:05:00,
2013-05-11 14:10:00,87.6,87.6,30.07,NW,319,9.0,14.0,100,0.00,,,0.00,0796,Weather View 32 v70,2013-05-11 21:10:00,
2013-05-11 14:15:00,88.1,88.1,30.07,SSW,207,6.0,14.0,100,0.00,,,0.00,0771,Weather View 32 v70,2013-05-11 21:15:00,
2013-05-11 14:25:00,88.2,88.2,30.07,SSW,207,3.0,14.0,100,0.00,,,0.00,0794,Weather View 32 v70,2013-05-11 21:25:00,
2013-05-11 14:30:00,88.3,88.3,30.07,West,274,4.0,14.0,100,0.00,,,0.00,0793,Weather View 32 v70,2013-05-11 21:30:00,
2013-05-11 14:35:00,88.4,88.4,30.06,NW,319,4.0,14.0,100,0.00,,,0.00,0794,Weather View 32 v70,2013-05-11 21:35:00,
2013-05-11 14:40:00,88.2,88.2,30.06,NW,319,6.0,14.0,100,0.00,,,0.00,0757,Weather View 32 v70,2013-05-11 21:40:00,
2013-05-11 14:45:00,89.1,89.1,30.06,NW,319,6.0,14.0,100,0.00,,,0.00,0771,Weather View 32 v70,2013-05-11 21:45:00,
2013-05-11 14:55:00,88.9,88.9,30.06,WNW,297,6.0,14.0,100,0.00,,,0.00,0750,Weather View 32 v70,2013-05-11 21:55:00,
2013-05-11 15:00:00,89.7,89.7,30.06,West,274,6.0,14.0,100,0.00,,,0.00,0737,Weather View 32 v70,2013-05-11 22:00:00,
2013-05-11 15:05:00,89.6,89.6,30.05,NNW,342,5.0,14.0,100,0.00,,,0.00,0718,Weather View 32 v70,2013-05-11 22:05:00,
2013-05-11 15:10:00,89.9,89.9,30.05,WNW,297,6.0,12.0,100,0.00,,,0.00,0670,Weather View 32 v70,2013-05-11 22:10:00,
2013-05-11 15:15:00,90.3,90.3,30.05,WNW,297,4.0,12.0,100,0.00,,,0.00,0702,Weather View 32 v70,2013-05-11 22:15:00,
2013-05-11 15:25:00,90.7,90.7,30.05,NW,319,5.0,12.0,100,0.00,,,0.00,0666,Weather View 32 v70,2013-05-11 22:25:00,
2013-05-11 15:30:00,90.9,90.9,30.05,North,4,4.0,12.0,100,0.00,,,0.00,0568,Weather View 32 v70,2013-05-11 22:30:00,
2013-05-11 15:35:00,90.6,90.6,30.05,NW,319,4.0,12.0,100,0.00,,,0.00,0693,Weather View 32 v70,2013-05-11 22:35:00,
2013-05-11 15:40:00,89.8,89.8,30.05,West,274,7.0,12.0,100,0.00,,,0.00,0701,Weather View 32 v70,2013-05-11 22:40:00,
2013-05-11 15:49:00,89.8,89.8,30.05,WSW,252,4.0,12.0,100,0.00,,,0.00,0677,Weather View 32 v70,2013-05-11 22:49:00,
2013-05-11 15:55:00,89.5,89.5,30.05,West,274,6.0,12.0,100,0.00,,,0.00,0662,Weather View 32 v70,2013-05-11 22:55:00,
2013-05-11 16:00:00,89.3,89.3,30.05,SSW,207,5.0,12.0,100,0.00,,,0.00,0651,Weather View 32 v70,2013-05-11 23:00:00,
2013-05-11 16:05:00,88.7,88.7,30.04,SW,229,9.0,14.0,100,0.00,,,0.00,0662,Weather View 32 v70,2013-05-11 23:05:00,
2013-05-11 16:10:00,88.5,88.5,30.04,SW,229,12.0,15.0,100,0.00,,,0.00,0660,Weather View 32 v70,2013-05-11 23:10:00,
2013-05-11 16:15:00,88.9,88.9,30.04,SW,229,5.0,15.0,100,0.00,,,0.00,0618,Weather View 32 v70,2013-05-11 23:15:00,
2013-05-11 16:25:00,89.4,89.4,30.04,West,274,6.0,15.0,100,0.00,,,0.00,0579,Weather View 32 v70,2013-05-11 23:25:00,
2013-05-11 16:30:00,89.1,89.1,30.04,SSW,207,8.0,15.0,100,0.00,,,0.00,0579,Weather View 32 v70,2013-05-11 23:30:00,
2013-05-11 16:35:00,89.0,89.0,30.04,South,184,3.0,15.0,100,0.00,,,0.00,0571,Weather View 32 v70,2013-05-11 23:35:00,
2013-05-11 16:40:00,89.4,89.4,30.04,West,274,4.0,15.0,100,0.00,,,0.00,0562,Weather View 32 v70,2013-05-11 23:40:00,
2013-05-11 16:45:00,89.8,89.8,30.04,SW,229,3.0,15.0,100,0.00,,,0.00,0520,Weather View 32 v70,2013-05-11 23:45:00,
2013-05-11 16:55:00,88.9,88.9,30.04,West,274,4.0,15.0,100,0.00,,,0.00,0449,Weather View 32 v70,2013-05-11 23:55:00,
2013-05-11 17:00:00,87.9,87.9,30.05,SW,229,4.0,15.0,100,0.00,,,0.00,0401,Weather View 32 v70,2013-05-12 00:00:00,
2013-05-11 17:05:00,88.0,88.0,30.05,WSW,252,5.0,15.0,100,0.00,,,0.00,0406,Weather View 32 v70,2013-05-12 00:05:00,
2013-05-11 17:10:00,87.4,87.4,30.05,WSW,252,4.0,15.0,100,0.00,,,0.00,0416,Weather View 32 v70,2013-05-12 00:10:00,
2013-05-11 17:20:00,86.9,86.9,30.05,WSW,252,7.0,14.0,100,0.00,,,0.00,0397,Weather View 32 v70,2013-05-12 00:20:00,
2013-05-11 17:25:00,86.6,86.6,30.05,WSW,252,10.0,16.0,100,0.00,,,0.00,0339,Weather View 32 v70,2013-05-12 00:25:00,
2013-05-11 17:30:00,86.2,86.2,30.05,West,274,9.0,17.0,100,0.00,,,0.00,0339,Weather View 32 v70,2013-05-12 00:30:00,
2013-05-11 17:35:00,86.0,86.0,30.05,NW,319,6.0,17.0,100,0.00,,,0.00,0327,Weather View 32 v70,2013-05-12 00:35:00,
2013-05-11 17:40:00,85.8,85.8,30.04,SW,229,7.0,17.0,100,0.00,,,0.00,0333,Weather View 32 v70,2013-05-12 00:40:00,
2013-05-11 17:50:00,85.7,85.7,30.05,SW,229,3.0,17.0,100,0.00,,,0.00,0307,Weather View 32 v70,2013-05-12 00:50:00,
2013-05-11 18:00:00,85.3,85.3,30.04,SSE,162,6.0,17.0,100,0.00,,,0.00,0284,Weather View 32 v70,2013-05-12 01:00:00,
2013-05-11 18:05:00,85.3,85.3,30.05,West,274,2.0,17.0,100,0.00,,,0.00,0282,Weather View 32 v70,2013-05-12 01:05:00,
2013-05-11 18:10:00,85.2,85.2,30.05,SE,139,4.0,17.0,100,0.00,,,0.00,0173,Weather View 32 v70,2013-05-12 01:10:00,
2013-05-11 18:20:00,83.5,83.5,30.04,SW,229,6.0,17.0,100,0.00,,,0.00,0117,Weather View 32 v70,2013-05-12 01:20:00,
2013-05-11 18:25:00,83.0,83.0,30.04,NW,319,3.0,17.0,100,0.00,,,0.00,0135,Weather View 32 v70,2013-05-12 01:25:00,
2013-05-11 18:30:00,82.3,82.3,30.04,NW,319,3.0,17.0,100,0.00,,,0.00,0106,Weather View 32 v70,2013-05-12 01:30:00,
2013-05-11 18:35:00,82.4,82.4,30.04,NNE,27,3.0,17.0,100,0.00,,,0.00,0130,Weather View 32 v70,2013-05-12 01:35:00,
2013-05-11 18:40:00,82.0,82.0,30.04,East,94,1.0,17.0,100,0.00,,,0.00,0118,Weather View 32 v70,2013-05-12 01:40:00,
2013-05-11 18:50:00,449.5,99.9,30.04,SE,139,1.0,14.0,100,0.00,,,0.00,0139,Weather View 32 v70,2013-05-12 01:50:00,
2013-05-11 18:55:00,449.5,99.9,30.04,ESE,117,0.0,14.0,100,0.00,,,0.00,0151,Weather View 32 v70,2013-05-12 01:55:00,
2013-05-11 19:00:00,449.5,99.9,30.04,ESE,117,0.0,11.0,100,0.00,,,0.00,0128,Weather View 32 v70,2013-05-12 02:00:00,
2013-05-11 19:05:00,449.5,99.9,30.04,South,184,1.0,9.0,100,0.00,,,0.00,0133,Weather View 32 v70,2013-05-12 02:05:00,
2013-05-11 19:10:00,449.5,99.9,30.04,North,4,0.0,9.0,100,0.00,,,0.00,0143,Weather View 32 v70,2013-05-12 02:10:00,
2013-05-11 19:15:00,449.5,99.9,30.04,North,4,0.0,9.0,100,0.00,,,0.00,0143,Weather View 32 v70,2013-05-12 02:15:00,
2013-05-11 19:20:00,449.5,99.9,30.04,North,4,0.0,9.0,100,0.00,,,0.00,0143,Weather View 32 v70,2013-05-12 02:20:00,
2013-05-11 19:30:00,449.5,99.9,30.04,North,4,0.0,7.0,100,0.00,,,0.00,0143,Weather View 32 v70,2013-05-12 02:30:00,
2013-05-11 19:35:00,449.5,99.9,30.04,North,4,0.0,6.0,100,0.00,,,0.00,0143,Weather View 32 v70,2013-05-12 02:35:00,
2013-05-11 19:40:00,449.5,99.9,30.04,North,4,0.0,5.0,100,0.00,,,0.00,0143,Weather View 32 v70,2013-05-12 02:40:00,
2013-05-11 19:45:00,449.5,99.9,30.04,North,4,0.0,5.0,100,0.00,,,0.00,0143,Weather View 32 v70,2013-05-12 02:45:00,
2013-05-11 19:50:00,449.5,99.9,30.04,North,4,0.0,3.0,100,0.00,,,0.00,0143,Weather View 32 v70,2013-05-12 02:50:00,
2013-05-11 20:00:00,449.5,99.9,30.04,North,4,0.0,2.0,100,0.00,,,0.00,0143,Weather View 32 v70,2013-05-12 03:00:00,